K7JKM Weather Reports


Display with metric or nautical units.
time (UTC)temp
F
wind
direction
speed
MPH
gust
MPH
rain 1hr
in
rain 24hr
in
rain mn
in
humidity
%
barometer
mb
20260502163011 54 263 0.0 0.0 0.00 0.00 0.00 60 1016.8
20260502161503 53 288 0.0 0.0 0.00 0.00 0.00 62 1016.8
20260502151516 50 304 0.0 0.0 0.00 0.00 0.00 64 1016.7
20260502123101 48 312 0.0 1.0 0.00 0.00 0.00 66 1016.6
20260502121527 48 295 0.0 1.0 0.00 0.00 0.00 66 1016.7
20260502114503 48 291 0.0 0.0 0.00 0.00 0.00 67 1016.7
20260502113002 48 258 0.0 0.0 0.00 0.00 0.00 67 1016.7
20260502111511 48 258 0.0 0.0 0.00 0.00 0.00 67 1016.8
20260502110011 48 258 0.0 0.0 0.00 0.00 0.00 67 1016.5
20260502104513 48 258 0.0 0.0 0.00 0.00 0.00 67 1016.7
20260502103012 49 283 0.0 0.0 0.00 0.00 0.00 67 1016.7
20260502101510 50 283 0.0 0.0 0.00 0.00 0.00 66 1016.7
20260502091516 51 292 0.0 0.0 0.00 0.00 0.00 66 1016.9
20260502071526 52 301 0.0 5.0 0.00 0.00 0.00 64 1017.7
20260502070022 52 296 0.0 3.0 0.00 0.00 0.00 64 1017.3
20260502064517 52 285 0.0 2.0 0.00 0.00 0.00 65 1017.5
20260502063015 52 304 0.0 3.0 0.00 0.00 0.00 65 1017.5
20260502061524 52 191 0.0 2.0 0.00 0.00 0.00 64 1017.5
20260502060022 52 303 0.0 4.0 0.00 0.00 0.00 64 1017.3
20260502054526 52 277 0.0 4.0 0.00 0.00 0.00 64 1017.2
20260502053023 52 101 0.0 4.0 0.00 0.00 0.00 64 1017.1
20260502051524 52 266 0.0 3.0 0.00 0.00 0.00 65 1017.1
20260502050031 53 68 0.0 5.0 0.00 0.00 0.00 65 1017.0
20260502044515 53 13 0.0 5.0 0.00 0.00 0.00 64 1016.9
20260502043028 53 300 0.0 5.0 0.00 0.00 0.00 64 1016.7
20260502041530 53 316 0.0 6.0 0.00 0.00 0.00 64 1016.6
20260502040012 54 295 0.0 5.0 0.00 0.00 0.00 63 1016.3
20260502034510 54 321 2.0 9.0 0.00 0.00 0.00 63 1016.3
20260502033008 55 49 1.0 8.0 0.00 0.00 0.00 62 1015.9
20260502031503 55 290 2.0 8.0 0.00 0.00 0.00 62 1015.8
20260502030010 56 305 1.0 9.0 0.00 0.00 0.00 61 1015.8
20260502024503 56 297 1.0 7.0 0.00 0.00 0.00 60 1015.6
20260502023013 57 263 2.0 11.0 0.00 0.00 0.00 59 1015.5
20260502021511 58 323 1.0 8.0 0.00 0.00 0.00 57 1015.4
20260502020008 59 196 0.0 8.0 0.00 0.00 0.00 57 1015.3
20260502014505 61 264 1.0 8.0 0.00 0.00 0.00 55 1015.3
20260502013003 62 314 1.0 8.0 0.00 0.00 0.00 54 1015.3
20260502011507 63 346 2.0 7.0 0.00 0.00 0.00 53 1015.3
20260502010005 64 293 1.0 8.0 0.00 0.00 0.00 53 1015.3
20260502004540 65 320 3.0 8.0 0.00 0.00 0.00 50 1015.3
20260502003014 67 319 1.0 7.0 0.00 0.00 0.00 49 1015.3
20260502001516 68 86 1.0 9.0 0.00 0.00 0.00 47 1015.2
20260502000009 69 272 3.0 9.0 0.00 0.00 0.00 46 1015.2
20260501234507 71 8 2.0 6.0 0.00 0.00 0.00 45 1015.2
20260501233003 71 323 1.0 7.0 0.00 0.00 0.00 44 1015.3
20260501231506 71 288 0.0 5.0 0.00 0.00 0.00 43 1015.3
20260501230022 71 221 1.0 8.0 0.00 0.00 0.00 43 1015.3
20260501224517 72 293 2.0 8.0 0.00 0.00 0.00 42 1015.5
20260501223015 74 9 1.0 7.0 0.00 0.00 0.00 39 1015.5
20260501221515 73 302 0.0 3.0 0.00 0.00 0.00 40 1015.7
20260501220012 73 349 0.0 2.0 0.00 0.00 0.00 41 1015.9
20260501214513 73 203 0.0 3.0 0.00 0.00 0.00 41 1016.0
20260501213040 74 77 0.0 1.0 0.00 0.00 0.00 40 1016.0
20260501211527 73 302 0.0 1.0 0.00 0.00 0.00 41 1016.1
20260501210037 72 347 0.0 4.0 0.00 0.00 0.00 41 1016.3
20260501204523 71 244 0.0 4.0 0.00 0.00 0.00 43 1016.4
20260501203016 69 154 0.0 1.0 0.00 0.00 0.00 45 1016.6
20260501201519 69 333 0.0 3.0 0.00 0.00 0.00 48 1016.8
20260501200017 68 59 0.0 4.0 0.00 0.00 0.00 46 1017.0
20260501194535 69 229 0.0 2.0 0.00 0.00 0.00 44 1017.2
20260501193029 68 297 0.0 2.0 0.00 0.00 0.00 47 1017.2
20260501191530 70 316 0.0 3.0 0.00 0.00 0.00 45 1017.3
20260501190024 68 144 0.0 2.0 0.00 0.00 0.00 48 1017.4
20260501184522 67 124 0.0 2.0 0.00 0.00 0.00 50 1017.5
20260501183022 65 257 0.0 2.0 0.00 0.00 0.00 54 1017.6
20260501181515 64 122 0.0 2.0 0.00 0.00 0.00 55 1017.6
20260501180015 63 202 0.0 0.0 0.00 0.00 0.00 55 1017.8
20260501174511 62 137 0.0 1.0 0.00 0.00 0.00 55 1017.8
20260501173007 61 174 0.0 1.0 0.00 0.00 0.00 57 1017.9
20260501171505 60 56 0.0 1.0 0.00 0.00 0.00 58 1018.0
20260501170003 59 204 0.0 1.0 0.00 0.00 0.00 58 1018.0
20260501164522 58 109 0.0 0.0 0.00 0.00 0.00 59 1017.8